Regional Weather Roundup
Issued by NWS Northern Indiana

Home | Current Version | Previous Version | Graphics & Text | Print | Product List | Glossary On
Versions: 1 2 3 4 5 6 7 8 9 10 11 12 13 14 15 16 17 18 19 20 21 22 23 24 25 26 27 28 29 30 31 32 33 34 35 36 37 38 39 40 41 42 43 44 45 46 47 48 49 50
241
ASUS43 KIWX 211800
RWRIWX

KIWX WEATHER ROUNDUP
NATIONAL WEATHER SERVICE NORTHERN INDIANA
200 PM EDT THU MAY 21 2015

NOTE: "FAIR" INDICATES FEW OR NO CLOUDS BELOW 12,000 FEET WITH NO
SIGNIFICANT WEATHER AND/OR OBSTRUCTIONS TO VISIBILITY.

* THESE STATIONS ARE NOT UNDER NWS QUALITY CONTROL. THEY ALSO MAY NOT
  REPORT WEATHER SUCH AS PRECIPITATION OR FOG.

INZ001>027-211900-
NORTHERN INDIANA

CITY           SKY/WX    TMP DP  RH WIND       PRES   REMARKS
GARY*          MOSUNNY   63  39  42 W12       30.07F
SOUTH BEND     MOSUNNY   58  40  51 W10       30.07F
6HR MIN TEMP:  45; 6HR MAX TEMP:  59;

ELKHART*       MOSUNNY   57  41  54 W9        30.06F
GOSHEN         PTSUNNY   58  46  64 W15       30.06F
6HR MIN TEMP:  45; 6HR MAX TEMP:  58;

WARSAW*        MOSUNNY   54  43  66 W7        30.07F
ANGOLA*        MOSUNNY   57  43  58 NW9       30.04S
FORT WAYNE     PTSUNNY   55  41  59 NW12      30.07F
6HR MIN TEMP:  48; 6HR MAX TEMP:  55;

PERU/GRISSOM   PTSUNNY   57  42  57 VRB7      30.07F
6HR MIN TEMP:  45; 6HR MAX TEMP:  57; 6HR PCP: TRACE;


$$
INZ028>050-211900-
CENTRAL INDIANA

CITY           SKY/WX    TMP DP  RH WIND       PRES   REMARKS
LAFAYETTE      PTSUNNY   58  42  55 NW9       30.09F
6HR MIN TEMP:  44; 6HR MAX TEMP:  58; 6HR PCP:  0.01;

KOKOMO*          N/A     55  41  58 W8        30.09F
6HR MIN TEMP:  45; 6HR MAX TEMP:  55; 6HR PCP:  0.01;

MUNCIE*        CLOUDY    53  40  61 N12       30.08F
6HR MIN TEMP:  48; 6HR MAX TEMP:  53;

INDIANAPOLIS   PTSUNNY   55  40  56 N12       30.10S
6HR MIN TEMP:  48; 6HR MAX TEMP:  55;


$$
MIZ043>046-050>051-056>058-064>065-071>073-077>080-211900-
SOUTHWEST LOWER MICHIGAN

CITY           SKY/WX    TMP DP  RH WIND       PRES   REMARKS
BATTLE CREEK   MOSUNNY   59  41  51 W10       30.02F
6HR MIN TEMP:  46; 6HR MAX TEMP:  59;

BENTON HARBOR  MOSUNNY   54  44  69 W12       30.06F
6HR MIN TEMP:  45; 6HR MAX TEMP:  54;

COLDWATER*     MOSUNNY   57  40  52 W12G17    30.03F
6HR MIN TEMP:  45; 6HR MAX TEMP:  58;

HILLSDALE*     MOSUNNY   59  38  46 W10G18    30.01F
HOLLAND        MOSUNNY   55  42  61 W13       30.04F
6HR MIN TEMP:  46; 6HR MAX TEMP:  57;

GRAND RAPIDS   PTSUNNY   61  34  36 W14       30.00F
6HR MIN TEMP:  45; 6HR MAX TEMP:  62;

KALAMAZOO      MOSUNNY   59  39  47 W12       30.04F
6HR MIN TEMP:  46; 6HR MAX TEMP:  59;

STURGIS*       PTSUNNY   57  41  54 W13       30.04F
THREE RIVERS*  FAIR      58  44  58 W12       30.04F
6HR MIN TEMP:  46; 6HR MAX TEMP:  58;


$$
OHZ001>008-015>018-024>025-211900-
NORTHWEST OHIO

CITY           SKY/WX    TMP DP  RH WIND       PRES   REMARKS
DEFIANCE       CLOUDY    57  38  48 NW14      30.04F
6HR MIN TEMP:  50; 6HR MAX TEMP:  57;

FINDLAY        PTSUNNY   59  38  45 NW12      30.01F
6HR MIN TEMP:  50; 6HR MAX TEMP:  59; 6HR PCP: TRACE;

TOLEDO EXPRESS CLOUDY    58  32  37 W10       30.01F
6HR MIN TEMP:  48; 6HR MAX TEMP:  58;

TOLEDO METCALF CLOUDY    60  27  28 W9        30.01F
6HR MIN TEMP:  50; 6HR MAX TEMP:  60;

LIMA           CLOUDY    54  40  59 NW13      30.04F
6HR MIN TEMP:  47; 6HR MAX TEMP:  54;


$$
AND FOR LAKE MICHIGAN COASTAL AND OPEN LAKE BUOY OBSERVATIONS

STATION/POSITION TEMP    WIND        PRES    VSBY  WAVE
                 AIR SEA DIR/SP/G                  HT/PER
                 (F)     (DEG/KT/KT) (MB)    (MI)  (FT/S)
CALUMET HARBOR    61     270/  4/  9   N/A
MICHIGAN CITY     49     230/ 12/ 13   N/A
BURNS HARBOR      54     260/  5/  6 1019.0S
SAINT JOSEPH      49     200/ 10/ 13 1019.3S
SOUTH LAKE BUOY   42 38  200/ 10/ 12 1017.5F         1/ 3
4 MI NW BRIDGMAN  49 53  270/ 12/ 12   N/A           2/ 3
MICHIGAN CITY     50 50  250/  8/ 10   N/A           1/ 3

$$
&&



USA.gov is the U.S. government's official web portal to all federal, state and local government web resources and services.